Location: Dappach
(48.9767°N, 9.6998°E)
Time: 21:38:03
(UTC+00:00)

COSMOS 2428 - Pass Details

Date: 15 August 2024
Orbit: 842 x 857 km, 70.9° (Epoch: 09 September)

Event Time Altitude Azimuth Distance (km) Brightness Sun altitude
Exits shadow 01:11:01 48° 241° (WSW) 1,107 2.9 -22.9°
Maximum altitude 01:12:31 66° 302° (WNW) 926 2.8 -22.8°
Drops below altitude 10° 01:18:13 10° 24° (NNE) 2,492 6.3 -22.3°
Sets 01:20:43 0° 28° (NNE) 3,434 7.4 -22.1°
